Regional Weather Roundup
Issued by NWS Newport/Morehead, NC

Current Version | Previous Version | Text Only | Print | Product List | Glossary Off
Versions: 1 2 3 4 5 6 7 8 9 10 11 12 13 14 15 16 17 18 19 20 21 22 23 24 25 26 27 28 29 30 31 32 33 34 35 36 37 38 39 40 41 42 43 44 45 46 47 48 49 50
000 ASUS42 KMHX 280113 RWRMHX WEATHER ROUNDUP FOR EASTERN NORTH CAROLINA NATIONAL WEATHER SERVICE NEWPORT/MOREHEAD CITY NC 900 PM EDT MON MAR 27 2017 NOTE: "FAIR" INDICATES FEW OR NO CLOUDS BELOW 12,000 FEET WITH NO SIGNIFICANT WEATHER AND/OR OBSTRUCTIONS TO VISIBILITY NCZ015>017-031-032-045>047-102-103-280200- NORTH COAST CITY SKY/WX TMP DP RH WIND PRES REMARKS EDENTON NOT AVBL ELIZABETH CITY CLEAR 66 54 65 S8 30.01S KITTY HAWK NOT AVBL MANTEO CLEAR 61 56 82 S7 30.04R $$ NCZ045>047-081-094-103-104-280200- CENTRAL COAST CITY SKY/WX TMP DP RH WIND PRES REMARKS FRISCO CLEAR 69 57 65 SW9 30.05S $$ NCZ095-097-098-100-101-280200- SOUTHERN COAST CITY SKY/WX TMP DP RH WIND PRES REMARKS BEAUFORT CLEAR 66 62 87 S8 30.05S CEDAR ISLAND NOT AVBL JACKSONVILLE CLEAR 65 56 72 S6 30.03S PINEY ISLAND CLEAR N/A N/A N/A S5 30.04S WILMINGTON CLEAR 65 56 72 S7 30.04S $$ NCZ011>013-027>030-043-044-078>080-089-090>093-098-280200- COASTAL PLAIN CITY SKY/WX TMP DP RH WIND PRES REMARKS AHOSKIE NOT AVBL CLINTON PTCLDY 69 57 64 S5 30.01S ELIZABETHTOWN PTCLDY 67 56 66 S6 30.02S GOLDSBORO CLEAR 70 56 61 S7 29.99R GREENVILLE CLEAR 70 54 56 S9 30.02S HAVELOCK CLEAR 64 55 72 S8 30.05S KENANSVILLE CLEAR 68 55 64 S6 30.03R KINSTON CLEAR 68 54 60 S9 30.02R NEW BERN CLEAR 65 56 72 S7 30.04S RICHLANDS CLEAR 65 55 70 S7 30.04R ROCKY MOUNT CLEAR 68 57 68 S5 29.97F WASHINGTON CLEAR 67 54 62 S7 30.02R WHITEVILLE PTCLDY 67 55 66 S5 30.03R $$ AMZ130-135-150-152-154-156-158-170-250-252-270-ANZ085-086-088-633-658-670-280200- MARINE OBSERVATIONS STATION/POSITION TIME TEMP WIND PRES WAVE SWELL AIR SEA DIR/SP/G HT/PER HT/PER (UTC) (F) (DEG/KT/KT) (MB) (FT/S) (FT/S) CHESAPEAKE LIGHT NOT AVBL 64 E VA BEACH 0050 55 49 190/ 10/ 10 1016.6 4/ 9 3/ 9 DUCK 0048 66 49 190/ 13/ 16 1015.9 2 E DUCK 0030 54 N/A 3/ 8 2/17 OREGON INLET 0048 180/ 9/ 11 1017.1 13E OREGON INLT 0048 55 N/A 4/11 3/11 HATTERAS CG 0048 67 62 210/ 6/ 9 1017.5 DIAMOND BUOY 0050 71 75 200/ 12/ 14 1017.8 4/ 9 3/ 9 CAPE LOOKOUT 0000 66 160/ 8/ 8 1017.4 BEAUFORT LAB 0048 65 60 170/ 7/ 9 1016.5 30 SE NEW RVR IN 0008 66 160/ 4/ 6 1017.7 30 SE NEW RVR IN 0043 64 N/A 4/10 2/11 27 SE WRIGHTSVLE 0008 69 66 220/ 4/ 6 1016.9 5 SE WRIGHTSVLE 0008 63 62 170/ 6/ 8 1017.1 225 S CAPE HAT 2350 68 72 100/ 8/ 12 1018.7 6/ 9 7/ 9 41 SE CHARLESTON 2350 72 75 170/ 12/ 14 1016.4 4/10 3/10 $$

USA.gov is the U.S. government's official web portal to all federal, state and local government web resources and services.